Location: York
(31.8935°S, 116.7682°E)
Time: 14:08:58
(UTC+08:00)

Explorer 7 - All Passes

Search period start: 25 September 2022 00:00
Search period end: 05 October 2022 00:00
Orbit: 482 x 668 km, 50.3° (Epoch: 24 September)

Date Brightness Start Highest point End Pass type
(mag) Time Alt. Az. Time Alt. Az. Time Alt. Az.
25 Sep - 00:43:32 10° NNW 00:47:11 52° NE 00:51:01 10° ESE night (unlit)
25 Sep - 02:24:52 10° WSW 02:27:45 20° SSW 02:30:46 10° SSE visible
25 Sep - 07:30:06 10° SSW 07:33:39 23° SSE 07:37:19 10° E daylight
25 Sep - 09:09:48 10° SW 09:14:18 61° NW 09:18:58 10° NNE daylight
26 Sep - 00:45:52 10° NW 00:49:38 85° SW 00:53:34 10° SE night (unlit)
26 Sep - 02:28:24 10° WSW 02:30:31 14° SSW 02:32:40 10° S visible
26 Sep - 07:32:16 10° SSW 07:36:17 32° SE 07:40:28 10° E daylight
26 Sep - 09:12:31 10° WSW 09:16:41 36° NW 09:21:01 10° NNE daylight
26 Sep - 23:09:57 10° NNE 23:12:10 15° NE 23:14:27 10° E night (unlit)
27 Sep - 00:48:28 10° WNW 00:52:08 47° SW 00:55:57 10° SE night (unlit)
27 Sep - 02:32:53 10° SSW 02:33:19 10° SSW 02:33:46 10° SSW visible
27 Sep - 05:56:05 10° S 05:57:40 12° SSE 05:59:17 10° SE daylight
27 Sep - 07:34:31 10° SW 07:38:51 50° SE 07:43:22 10° ENE daylight
27 Sep - 09:15:33 10° WSW 09:19:02 22° NW 09:22:37 10° N daylight
27 Sep - 23:11:16 10° N 23:14:29 27° NE 23:17:45 10° ESE night (unlit)
28 Sep - 00:51:23 10° W 00:54:43 29° SW 00:58:11 10° SSE night (unlit)
28 Sep - 05:57:48 10° S 06:00:27 16° SSE 06:03:10 10° ESE daylight
28 Sep - 07:36:54 10° SW 07:41:20 81° SE 07:46:00 10° NE daylight
28 Sep - 09:19:22 10° W 09:21:20 13° NW 09:23:20 10° NNW daylight
28 Sep - 23:13:12 10° NNW 23:16:50 50° NE 23:20:33 10° ESE night (unlit)
29 Sep - 00:54:33 10° WSW 00:57:22 19° SSW 01:00:15 10° SSE night (unlit)
29 Sep - 05:59:47 10° SSW 06:03:08 22° SSE 06:06:38 10° E daylight
29 Sep - 07:39:25 10° SW 07:43:46 61° NW 07:48:20 10° NE daylight
29 Sep - 23:15:30 10° NW 23:19:15 86° SW 23:23:06 10° SE night (unlit)
30 Sep - 00:58:06 10° WSW 01:00:05 14° SSW 01:02:06 10° S night (unlit)
30 Sep - 06:01:55 10° SSW 06:05:45 31° SE 06:09:47 10° E daylight
30 Sep - 07:42:06 10° WSW 07:46:09 35° NW 07:50:22 10° NNE daylight
30 Sep - 21:39:36 10° NNE 21:41:46 15° NE 21:43:57 10° E night (unlit)
30 Sep - 23:18:05 10° WNW 23:21:44 47° SW 23:25:27 10° SE night (unlit)
01 Oct - 04:26:00 10° S 04:27:10 11° SSE 04:28:20 10° SE visible
01 Oct - 06:04:09 10° SW 06:08:18 48° SE 06:12:40 10° ENE daylight
01 Oct - 07:45:07 10° W 07:48:29 21° NW 07:51:57 10° N daylight
01 Oct - 21:40:52 10° N 21:44:03 27° NE 21:47:16 10° ESE night (unlit)
01 Oct - 23:20:58 10° W 23:24:16 29° SW 23:27:40 10° SSE night (unlit)
02 Oct - 04:27:31 10° S 04:29:55 15° SSE 04:32:22 10° ESE visible
02 Oct - 06:06:29 10° SW 06:10:46 79° SE 06:15:17 10° NE daylight
02 Oct - 07:48:58 10° WNW 07:50:46 12° NW 07:52:36 10° NNW daylight
02 Oct - 21:42:45 10° NNW 21:46:23 49° NE 21:50:04 10° ESE night (unlit)
02 Oct - 23:24:07 10° WSW 23:26:54 19° SSW 23:29:43 10° SSE night (unlit)
03 Oct - 04:29:26 10° SSW 04:32:35 20° SSE 04:35:52 10° E visible
03 Oct - 06:08:58 10° SW 06:13:11 61° NW 06:17:38 10° NE daylight
03 Oct - 21:45:01 10° NW 21:48:47 87° SW 21:52:35 10° SE night (unlit)
03 Oct - 23:27:40 10° WSW 23:29:35 13° SSW 23:31:31 10° S night (unlit)
04 Oct - 04:31:30 10° SSW 04:35:11 29° SE 04:39:01 10° E visible
04 Oct - 06:11:38 10° WSW 06:15:32 35° NW 06:19:39 10° NNE daylight
04 Oct - 20:09:06 10° NNE 20:11:15 15° NE 20:13:25 10° E night (unlit)
04 Oct - 21:47:34 10° WNW 21:51:14 48° SW 21:54:55 10° SE night (unlit)
